EW4271 Weather Reports


Display with metric or nautical units.
time (UTC)temp
F
wind
direction
speed
MPH
gust
MPH
rain 1hr
in
rain 24hr
in
rain mn
in
humidity
%
barometer
mb
20260507003628 51 341 2.0 6.0 0.00 0.01 0.00 39 1018.7
20260507003125 52 221 2.0 6.0 0.00 0.01 0.00 39 1018.9
20260507002638 52 41 2.0 5.0 0.00 0.01 0.00 38 1018.7
20260507002130 53 250 2.0 6.0 0.00 0.01 0.00 35 1018.5
20260507001623 53 342 2.0 4.0 0.00 0.01 0.00 36 1018.4
20260507001158 53 40 2.0 5.0 0.00 0.01 0.00 36 1018.1
20260507000649 53 157 2.0 9.0 0.00 0.01 0.00 36 1018.1
20260507000124 54 254 3.0 12.0 0.00 0.01 0.00 36 1018.0
20260506235636 54 9 3.0 12.0 0.00 0.01 0.00 36 1018.1
20260506235128 54 313 4.0 12.0 0.00 0.01 0.00 35 1018.0
20260506234626 54 350 2.0 12.0 0.00 0.01 0.00 34 1018.0
20260506234200 55 96 4.0 11.0 0.00 0.01 0.00 34 1017.8
20260506233631 55 272 5.0 11.0 0.00 0.01 0.00 33 1017.7
20260506233124 55 299 3.0 6.0 0.00 0.01 0.00 34 1017.3
20260506232637 55 281 3.0 8.0 0.00 0.01 0.00 34 1017.4
20260506232129 55 248 3.0 8.0 0.00 0.01 0.00 35 1017.4
20260506231623 54 5 1.0 9.0 0.00 0.01 0.00 36 1017.2
20260506231135 54 38 3.0 9.0 0.00 0.01 0.00 35 1017.2
20260506230629 55 340 3.0 9.0 0.00 0.01 0.00 35 1017.3
20260506230126 55 33 4.0 10.0 0.00 0.01 0.00 34 1017.1
20260506225639 55 9 2.0 10.0 0.00 0.01 0.00 35 1016.8
20260506225133 55 26 4.0 10.0 0.00 0.01 0.00 34 1016.7
20260506224625 55 23 4.0 12.0 0.00 0.01 0.00 34 1016.8
20260506224139 56 355 4.0 12.0 0.00 0.01 0.00 34 1016.8
20260506223653 56 281 4.0 11.0 0.00 0.01 0.00 35 1016.5
20260506223126 56 221 5.0 11.0 0.00 0.01 0.00 37 1016.6
20260506222639 56 23 5.0 11.0 0.00 0.01 0.00 38 1016.5
20260506222133 56 45 5.0 14.0 0.00 0.01 0.00 39 1016.1
20260506221630 55 33 5.0 14.0 0.00 0.01 0.00 39 1016.2
20260506221123 55 355 3.0 8.0 0.00 0.01 0.00 43 1016.1
20260506220636 55 36 4.0 11.0 0.00 0.01 0.00 43 1016.2
20260506220129 54 23 2.0 8.0 0.00 0.01 0.00 44 1016.3
20260506215623 53 244 3.0 14.0 0.00 0.01 0.00 46 1016.2
20260506215157 52 40 4.0 14.0 0.00 0.01 0.00 47 1016.4
20260506214629 53 308 3.0 11.0 0.00 0.01 0.00 46 1016.4
20260506214142 52 292 6.0 12.0 0.00 0.01 0.00 47 1016.7
20260506213635 53 35 5.0 13.0 0.00 0.01 0.00 48 1016.8
20260506213133 53 9 5.0 13.0 0.00 0.01 0.00 48 1017.0
20260506212647 52 277 4.0 12.0 0.00 0.01 0.00 51 1017.0
20260506212138 55 37 5.0 11.0 0.00 0.01 0.00 50 1017.1
20260506211632 58 302 4.0 11.0 0.00 0.01 0.00 38 1016.7
20260506211125 59 266 5.0 11.0 0.00 0.01 0.00 32 1015.9
20260506210639 59 293 3.0 11.0 0.00 0.01 0.00 31 1015.7
20260506210133 60 38 4.0 11.0 0.00 0.01 0.00 31 1015.5
20260506205626 60 219 3.0 6.0 0.00 0.01 0.00 32 1015.4
20260506205123 60 159 3.0 7.0 0.00 0.01 0.00 32 1015.6
20260506204637 60 169 2.0 11.0 0.00 0.01 0.00 33 1015.5
20260506204131 60 18 3.0 11.0 0.00 0.01 0.00 32 1015.7
20260506203625 59 51 3.0 8.0 0.00 0.01 0.00 32 1015.6
20260506203159 59 138 2.0 11.0 0.00 0.01 0.00 35 1015.9
20260506202652 59 118 4.0 10.0 0.00 0.01 0.00 34 1015.9
20260506202123 60 321 3.0 10.0 0.00 0.01 0.00 33 1015.9
20260506201637 59 117 3.0 9.0 0.00 0.01 0.00 33 1015.7
20260506201131 59 335 5.0 11.0 0.00 0.01 0.00 33 1015.8
20260506200628 59 289 5.0 8.0 0.00 0.01 0.00 33 1015.8
20260506200202 59 236 3.0 9.0 0.00 0.01 0.00 38 1015.8
20260506195633 59 233 2.0 9.0 0.00 0.01 0.00 39 1015.8
20260506195127 58 153 2.0 8.0 0.00 0.01 0.00 40 1016.0
20260506194641 57 72 3.0 9.0 0.00 0.01 0.00 42 1015.9
20260506194135 56 255 4.0 9.0 0.00 0.01 0.00 43 1016.0
20260506193627 55 241 3.0 9.0 0.00 0.01 0.00 45 1016.1
20260506193141 54 148 4.0 9.0 0.00 0.01 0.00 46 1016.1
20260506192655 52 32 3.0 7.0 0.00 0.01 0.00 50 1016.3
20260506192132 51 113 3.0 9.0 0.00 0.01 0.00 55 1016.5
20260506191625 51 155 3.0 9.0 0.00 0.01 0.00 53 1016.8
20260506191139 52 76 3.0 12.0 0.00 0.01 0.00 51 1017.0
20260506190633 53 234 4.0 12.0 0.00 0.01 0.00 46 1017.0
20260506190126 54 5 5.0 11.0 0.00 0.01 0.00 43 1016.7
20260506185640 55 257 2.0 10.0 0.00 0.01 0.00 40 1016.5
20260506185154 55 59 3.0 10.0 0.00 0.01 0.00 40 1016.3
20260506184626 55 192 2.0 7.0 0.00 0.01 0.00 42 1016.3
20260506184124 54 76 3.0 11.0 0.00 0.01 0.00 42 1016.6
20260506183636 54 156 4.0 11.0 0.00 0.01 0.00 41 1016.6
20260506183130 54 213 3.0 6.0 0.00 0.01 0.00 42 1016.7
20260506182623 54 272 2.0 6.0 0.00 0.01 0.00 42 1016.7
20260506182158 54 331 2.0 9.0 0.00 0.01 0.00 43 1016.7
20260506181628 54 221 3.0 9.0 0.00 0.01 0.00 41 1016.8
20260506181122 54 276 4.0 10.0 0.00 0.01 0.00 41 1016.8
20260506180636 54 30 4.0 10.0 0.00 0.01 0.00 43 1016.7
20260506180130 54 320 3.0 7.0 0.00 0.01 0.00 39 1016.8
20260506175622 55 5 2.0 8.0 0.00 0.01 0.00 40 1016.8
20260506175156 55 28 2.0 10.0 0.00 0.01 0.00 40 1016.7
20260506174632 54 40 4.0 10.0 0.00 0.01 0.00 39 1016.6
20260506174126 54 39 5.0 11.0 0.00 0.01 0.00 38 1016.7
20260506173639 55 33 5.0 11.0 0.00 0.01 0.00 39 1016.8
20260506173134 55 34 3.0 7.0 0.00 0.01 0.00 39 1016.6
20260506172647 55 54 3.0 7.0 0.00 0.01 0.00 40 1016.6
20260506172139 55 87 3.0 8.0 0.00 0.01 0.00 41 1016.6
20260506171633 55 61 4.0 8.0 0.00 0.01 0.00 39 1016.7
20260506171125 54 26 3.0 8.0 0.00 0.01 0.00 41 1016.7
20260506170644 54 355 3.0 10.0 0.00 0.01 0.00 40 1016.8
20260506170137 54 37 4.0 10.0 0.00 0.01 0.00 41 1016.6
20260506165631 54 31 3.0 6.0 0.00 0.01 0.00 41 1016.4
20260506165125 54 19 4.0 9.0 0.00 0.01 0.00 42 1016.3
20260506164640 53 27 4.0 9.0 0.00 0.01 0.00 43 1016.3
20260506164153 53 67 4.0 9.0 0.00 0.01 0.00 43 1016.3
20260506163646 53 252 2.0 9.0 0.00 0.01 0.00 45 1016.2
20260506163139 52 31 2.0 9.0 0.00 0.01 0.00 46 1016.2
20260506162633 52 290 2.0 8.0 0.00 0.01 0.00 46 1016.1
20260506162129 52 161 3.0 8.0 0.00 0.01 0.00 46 1016.1
20260506161623 52 298 2.0 7.0 0.00 0.01 0.00 50 1016.2
20260506161137 51 149 3.0 9.0 0.00 0.01 0.00 51 1016.1
20260506160631 50 30 3.0 9.0 0.00 0.01 0.00 50 1016.2
20260506160125 50 279 2.0 9.0 0.00 0.01 0.00 51 1016.4
20260506155637 49 5 4.0 10.0 0.00 0.01 0.00 51 1016.3
20260506155152 49 277 5.0 10.0 0.00 0.01 0.00 52 1016.5
20260506154646 48 240 4.0 9.0 0.00 0.01 0.00 53 1016.5
20260506154138 48 15 4.0 11.0 0.00 0.01 0.00 52 1016.6
20260506153636 48 255 4.0 12.0 0.00 0.01 0.00 52 1016.6
20260506153129 48 29 5.0 12.0 0.00 0.01 0.00 53 1016.6
20260506152623 47 350 3.0 12.0 0.00 0.01 0.00 53 1016.7
20260506152137 48 14 4.0 12.0 0.00 0.01 0.00 53 1016.8
20260506151630 48 132 1.0 6.0 0.00 0.01 0.00 56 1016.8
20260506151123 48 213 2.0 5.0 0.00 0.01 0.00 57 1016.6
20260506150637 47 163 2.0 4.0 0.00 0.01 0.00 58 1016.6
20260506150132 46 248 1.0 3.0 0.00 0.01 0.00 58 1016.7
20260506145630 46 75 2.0 9.0 0.00 0.01 0.00 61 1016.7
20260506145124 46 30 6.0 10.0 0.00 0.01 0.00 57 1016.7
20260506144638 46 36 6.0 10.0 0.00 0.01 0.00 56 1016.8
20260506144132 46 34 1.0 6.0 0.00 0.01 0.00 57 1016.8
20260506143625 46 56 3.0 5.0 0.00 0.01 0.00 60 1016.8
20260506143139 45 109 2.0 6.0 0.00 0.01 0.00 60 1016.7
20260506142633 44 61 4.0 6.0 0.00 0.01 0.00 60 1016.7
20260506142127 44 43 0.0 5.0 0.00 0.01 0.00 60 1016.6
20260506141625 44 61 4.0 5.0 0.00 0.01 0.00 59 1016.6
20260506141158 44 9 4.0 5.0 0.00 0.01 0.00 58 1016.6
20260506140651 45 355 1.0 5.0 0.00 0.01 0.00 58 1016.4
20260506140123 45 55 3.0 6.0 0.00 0.01 0.00 57 1016.3
20260506135635 44 146 3.0 7.0 0.00 0.01 0.00 59 1016.2
20260506135130 44 133 2.0 7.0 0.00 0.01 0.00 60 1016.2
20260506134623 43 43 2.0 7.0 0.00 0.01 0.00 59 1016.2
20260506134136 43 83 3.0 10.0 0.00 0.01 0.00 61 1016.3
20260506133630 43 207 2.0 10.0 0.00 0.01 0.00 61 1016.4
20260506133123 43 183 2.0 6.0 0.00 0.01 0.00 62 1016.4
20260506132641 42 108 3.0 8.0 0.00 0.01 0.00 61 1016.4
20260506132134 42 276 4.0 9.0 0.00 0.01 0.00 60 1016.1
20260506131627 42 132 1.0 9.0 0.00 0.01 0.00 61 1016.1
20260506131142 42 76 3.0 9.0 0.00 0.01 0.00 61 1016.1
20260506130635 42 90 4.0 10.0 0.00 0.01 0.00 61 1016.1
20260506130128 42 216 3.0 11.0 0.00 0.01 0.00 63 1016.0
20260506125701 41 174 3.0 11.0 0.00 0.01 0.00 63 1016.0
20260506125134 41 39 3.0 10.0 0.00 0.01 0.00 64 1016.0
20260506124649 41 149 5.0 8.0 0.00 0.01 0.00 67 1016.0
20260506124125 41 156 0.0 5.0 0.00 0.01 0.00 69 1015.9
20260506123639 41 173 2.0 5.0 0.00 0.01 0.00 69 1015.9
20260506123132 41 83 0.0 0.0 0.00 0.01 0.00 66 1015.9
20260506122626 41 81 0.0 2.0 0.00 0.01 0.00 66 1015.8
20260506122200 41 81 1.0 2.0 0.00 0.01 0.00 66 1015.7
20260506121633 41 81 1.0 3.0 0.00 0.01 0.00 66 1015.7
20260506121146 41 319 1.0 3.0 0.00 0.01 0.00 65 1015.7
20260506120638 41 254 2.0 3.0 0.00 0.01 0.00 64 1015.4
20260506120153 41 136 1.0 5.0 0.00 0.01 0.00 64 1015.4
20260506115626 41 46 1.0 5.0 0.00 0.01 0.00 64 1015.4
20260506115124 42 136 2.0 11.0 0.00 0.01 0.00 64 1015.4
20260506114638 42 57 2.0 11.0 0.00 0.01 0.00 63 1015.3
20260506114132 42 26 3.0 11.0 0.00 0.01 0.00 62 1015.2
20260506113625 42 80 2.0 12.0 0.00 0.01 0.00 62 1015.0
20260506113138 42 267 4.0 12.0 0.00 0.01 0.00 62 1014.9
20260506112632 41 75 4.0 11.0 0.00 0.01 0.00 63 1014.8
20260506112125 41 298 3.0 14.0 0.00 0.01 0.00 65 1015.0
20260506111623 41 241 5.0 14.0 0.00 0.01 0.00 65 1015.0
20260506111138 41 142 1.0 8.0 0.00 0.01 0.00 66 1015.0
20260506110630 41 345 2.0 8.0 0.00 0.01 0.00 66 1015.0
20260506110125 41 349 1.0 7.0 0.00 0.01 0.00 65 1015.0
20260506105637 41 335 2.0 6.0 0.00 0.01 0.00 65 1015.1
20260506105131 40 186 2.0 7.0 0.00 0.01 0.00 65 1015.2
20260506104624 40 232 0.0 5.0 0.00 0.01 0.00 66 1015.4
20260506104137 40 269 1.0 5.0 0.00 0.01 0.00 66 1015.4
20260506103631 40 44 2.0 5.0 0.00 0.01 0.00 66 1015.6
20260506103129 40 237 1.0 3.0 0.00 0.01 0.00 65 1015.6
20260506102623 41 221 0.0 3.0 0.00 0.01 0.00 65 1015.6
20260506102137 41 215 2.0 3.0 0.00 0.01 0.00 64 1015.5
20260506101651 41 57 0.0 2.0 0.00 0.01 0.00 63 1015.4
20260506101124 41 57 0.0 3.0 0.00 0.01 0.00 63 1015.4
20260506100637 41 59 0.0 8.0 0.00 0.01 0.00 63 1015.3
20260506100130 41 45 4.0 8.0 0.00 0.01 0.00 62 1015.4
20260506095643 41 57 4.0 6.0 0.00 0.01 0.00 62 1015.5
20260506095137 41 135 1.0 8.0 0.00 0.01 0.00 62 1015.4
20260506094635 41 102 3.0 8.0 0.00 0.01 0.00 62 1015.4
20260506094127 41 63 2.0 4.0 0.00 0.01 0.00 63 1015.3
20260506093641 41 144 3.0 4.0 0.00 0.01 0.00 63 1015.1
20260506093155 41 41 1.0 6.0 0.00 0.01 0.00 63 1015.1
20260506092628 41 56 3.0 6.0 0.00 0.01 0.00 63 1015.1
20260506092122 41 96 2.0 6.0 0.00 0.01 0.00 64 1015.0
20260506091637 41 120 2.0 5.0 0.00 0.01 0.00 63 1015.0
20260506091130 41 147 1.0 5.0 0.00 0.01 0.00 62 1015.0
20260506090628 42 72 1.0 5.0 0.00 0.01 0.00 62 1015.0
20260506090123 42 209 1.0 5.0 0.00 0.01 0.00 62 1015.0
20260506085636 42 92 1.0 4.0 0.00 0.01 0.00 62 1015.1
20260506085150 42 177 2.0 8.0 0.00 0.01 0.00 61 1015.2
20260506084643 42 219 3.0 8.0 0.00 0.01 0.00 62 1015.1
20260506084135 42 21 3.0 8.0 0.00 0.01 0.00 62 1015.1
20260506083648 42 282 3.0 7.0 0.00 0.01 0.00 64 1015.2
20260506083140 42 170 1.0 6.0 0.00 0.01 0.00 63 1015.4
20260506082655 42 271 3.0 6.0 0.00 0.01 0.00 63 1015.4
20260506082127 42 153 0.0 5.0 0.00 0.01 0.00 63 1015.4
20260506081641 42 162 3.0 7.0 0.00 0.01 0.00 62 1015.4
20260506081135 43 128 2.0 7.0 0.00 0.01 0.00 62 1015.4
20260506080653 42 250 2.0 4.0 0.00 0.01 0.00 62 1015.3
20260506080125 42 5 2.0 7.0 0.00 0.01 0.00 62 1015.2
20260506073129 43 222 3.0 9.0 0.00 0.01 0.00 62 1015.3
20260506072647 43 103 0.0 5.0 0.00 0.01 0.00 63 1015.4
20260506072140 43 157 2.0 5.0 0.00 0.01 0.00 64 1015.4
20260506071633 43 184 1.0 4.0 0.00 0.01 0.00 63 1015.5
20260506071148 43 188 0.0 4.0 0.00 0.01 0.00 64 1015.6
20260506070641 43 286 1.0 5.0 0.00 0.01 0.00 64 1015.8
20260506070136 43 350 1.0 8.0 0.00 0.01 0.00 64 1015.7
20260506062129 44 103 0.0 3.0 0.00 0.01 0.00 62 1015.5
20260506061623 44 279 1.0 6.0 0.00 0.01 0.00 62 1015.4
20260506061137 44 317 2.0 6.0 0.00 0.01 0.00 63 1015.4
20260506060630 44 311 3.0 7.0 0.00 0.01 0.00 62 1015.4
20260506060128 44 307 1.0 11.0 0.00 0.01 0.00 63 1015.4
20260506051146 45 300 3.0 13.0 0.00 0.01 0.01 64 1014.8
20260506050658 45 34 2.0 10.0 0.00 0.01 0.01 66 1015.1
20260506050131 45 49 2.0 7.0 0.00 0.01 0.01 66 1015.6
20260506044631 45 298 2.0 6.0 0.00 0.01 0.01 67 1015.2
20260506044123 45 221 2.0 6.0 0.00 0.01 0.01 68 1015.5
20260506043640 45 340 2.0 6.0 0.00 0.01 0.01 68 1015.5
20260506043153 45 211 0.0 4.0 0.00 0.01 0.01 68 1015.7
20260506042636 45 316 1.0 4.0 0.00 0.01 0.01 69 1015.5
20260506042127 45 197 1.0 5.0 0.00 0.01 0.01 69 1015.4
20260506041638 45 255 2.0 6.0 0.00 0.01 0.01 69 1015.2
20260506041130 45 273 1.0 4.0 0.00 0.01 0.01 70 1015.2
20260506040624 44 243 1.0 5.0 0.00 0.01 0.01 70 1014.9
20260506040138 44 221 2.0 5.0 0.00 0.01 0.01 72 1014.7
20260506035651 44 90 2.0 6.0 0.00 0.01 0.01 74 1014.7
20260506035125 43 337 2.0 11.0 0.00 0.01 0.01 75 1014.4
20260506034623 43 5 3.0 11.0 0.00 0.01 0.01 76 1014.3
20260506034136 43 26 2.0 5.0 0.01 0.01 0.01 78 1014.5
20260506033630 43 51 1.0 5.0 0.01 0.01 0.01 82 1014.5
20260506033144 43 154 0.0 0.0 0.01 0.01 0.01 80 1014.9
20260506032636 43 154 0.0 0.0 0.01 0.01 0.01 79 1015.2
20260506032130 43 275 0.0 2.0 0.01 0.01 0.01 79 1015.5
20260506031645 44 177 0.0 4.0 0.01 0.01 0.01 79 1015.4
20260506031136 43 254 1.0 5.0 0.01 0.01 0.01 78 1015.5
20260506030630 43 46 1.0 6.0 0.01 0.01 0.01 78 1015.2
20260506030127 43 252 1.0 4.0 0.01 0.01 0.01 78 1015.0
20260506025622 44 321 2.0 12.0 0.01 0.01 0.01 77 1014.7
20260506025156 44 273 2.0 15.0 0.01 0.01 0.01 76 1014.6
20260506024648 44 261 3.0 15.0 0.01 0.01 0.01 73 1014.2
20260506024141 45 88 3.0 12.0 0.00 0.00 0.00 70 1014.0
20260506023635 44 105 1.0 6.0 0.00 0.00 0.00 71 1014.2
20260506023129 44 288 2.0 6.0 0.00 0.00 0.00 71 1014.3
20260506022644 45 200 1.0 14.0 0.00 0.00 0.00 70 1014.5
20260506022156 45 312 4.0 14.0 0.00 0.00 0.00 69 1014.5
20260506021629 45 25 4.0 11.0 0.00 0.00 0.00 70 1014.0
20260506021144 45 355 4.0 9.0 0.00 0.00 0.00 72 1013.5
20260506020636 44 284 1.0 8.0 0.00 0.00 0.00 72 1013.1
20260506020129 44 23 2.0 8.0 0.00 0.00 0.00 73 1013.1
20260506015642 43 320 2.0 4.0 0.00 0.00 0.00 78 1013.1
20260506015155 44 120 2.0 3.0 0.00 0.00 0.00 77 1013.3
20260506014629 44 205 1.0 3.0 0.00 0.00 0.00 77 1013.7
20260506014141 44 182 1.0 8.0 0.00 0.00 0.00 76 1013.8
20260506013656 44 281 0.0 8.0 0.00 0.00 0.00 76 1014.1
20260506013129 45 230 3.0 7.0 0.00 0.00 0.00 73 1014.2
20260506012623 46 313 2.0 10.0 0.00 0.00 0.00 69 1014.0
20260506012140 48 315 3.0 10.0 0.00 0.00 0.00 64 1014.0
20260506011654 50 284 3.0 9.0 0.00 0.00 0.00 59 1014.0
20260506011127 50 360 3.0 9.0 0.00 0.00 0.00 53 1013.4
20260506010701 50 251 2.0 7.0 0.00 0.00 0.00 55 1013.3
20260506010133 50 209 1.0 4.0 0.00 0.00 0.00 55 1013.0
20260506005627 51 46 2.0 4.0 0.00 0.00 0.00 54 1012.6
20260506005140 51 246 2.0 5.0 0.00 0.00 0.00 54 1012.8
20260506004634 51 232 3.0 8.0 0.00 0.00 0.00 53 1012.9
20260506004148 51 255 4.0 8.0 0.00 0.00 0.00 51 1012.6